[[{"header":{"parameterUnit":"m.s-1","parameterCategory":1,"la1":30.2991,"la2":30.254,"lo1":-89.0895,"lo2":-89.0444,"dy":0.0017,"dx":0.0017,"nx":28,"ny":28,"refTime":"2024-05-12T09:00:00:Z","depth":0,"parameterNumber":2,"parameterNumberName":"U-component_of_WINDS"},"data":[0,0,0,0,0,0,0,0,0,0,0,0,0,0,0,0,0,0,0,0,0,0,0,0,0,0,0,0,0,0,0,0,0,0,0,0,0,0,0,0,0,0,0,0,0,0,0,0,0,0,0,0,0,0,0,0,0,0,-5.0037,-5.0035,0,-4.9907,-4.9905,-4.9904,-4.9746,-4.9744,-4.9742,-4.9739,-4.9604,-4.9602,-4.9601,0,0,0,0,0,0,0,0,0,0,0,0,0,-5.0147,-5.0146,-5.0037,-5.0035,-5.0034,-4.9907,-4.9905,-4.9904,-4.9747,-4.9744,-4.9741,-4.9738,-4.9604,-4.9603,-4.9601,0,0,0,0,0,0,0,0,0,0,0,0,0,-5.0066,-5.0145,-5.0037,-4.994,-4.993,-4.9907,-4.9905,-4.9903,-4.9747,-4.9744,-4.974,-4.9737,-4.9605,-4.9603,-4.9601,-4.9662,0,0,-4.9595,-4.9594,0,0,0,0,0,0,0,0,-5.0071,-5.0063,-4.9956,-4.9947,-4.9936,-4.9839,-4.9894,-4.9822,-4.9748,-4.9817,-4.9739,-4.9735,-4.9685,-4.9676,-4.966,-4.9656,-4.965,-4.9594,-4.9593,-4.9592,-4.9592,0,0,0,0,0,0,0,-5.0077,-5.0067,-4.9985,-4.9955,-4.9942,-4.9903,-4.9887,-4.988,-4.9773,-4.9811,-4.9799,-4.9786,-4.9678,-4.9662,-4.9655,-4.9648,-4.9594,-4.9593,-4.9591,-4.9591,-4.9686,-4.9689,0,0,0,0,0,0,-5.0097,-5.0073,-4.9989,-4.9981,-4.9996,-4.9904,-4.9886,-4.9874,-4.9773,-4.9754,-4.9789,-4.9779,-4.9667,-4.9658,-4.965,-4.9712,-4.9592,-4.9591,-4.9589,-4.9682,-4.9686,-4.969,0,0,0,0,0,0,-5.01,-5.0091,-4.9995,-5.0024,-5.0009,-4.9906,-4.9893,-4.9873,-4.9856,-4.9756,-4.9736,-4.9792,-4.9664,-4.9653,-4.966,-4.9706,-4.959,-4.9588,-4.9678,-4.9683,-4.9688,-4.984,0,0,0,0,0,0,-5.0104,-5.0093,-5.0116,-5.0026,-5.0008,-5.0008,-4.9896,-4.9873,-4.9854,-4.9839,-4.9754,-4.9736,-4.966,-4.9664,-4.9658,-4.9701,-4.9586,-4.9673,-4.968,-4.9687,-4.9831,-4.9851,-4.9867,0,0,0,0,0,-5.0109,-5.0164,-5.0118,-5.0109,-5.0034,-5.0011,-5.0,-4.9913,-4.9858,-4.9879,-4.9815,-4.9739,-4.9703,-4.9666,-4.9658,-4.9701,-4.9669,-4.9678,-4.9686,-4.9823,-4.9847,-4.9867,0,0,0,0,0,0,-5.0261,-5.015,-5.0098,-5.0126,-5.0079,-4.9984,-5.0008,-4.9941,-4.9908,-4.9896,-4.9788,-4.977,-4.979,-4.9747,-4.9707,-4.9754,-4.9675,-4.9682,-4.9781,-4.9803,-4.9821,-4.983,-4.9585,0,0,0,0,0,-5.0298,-5.0289,-5.0193,-5.0226,-5.0206,-5.0112,-5.0098,-5.0035,-4.9982,-4.9961,-4.9897,-4.9848,-4.9825,-4.9813,-4.9786,-4.9825,-4.9803,-4.9851,-4.987,-4.9885,-4.9891,-4.9907,-4.9926,-4.9718,-4.9718,-4.9718,0,0,-5.0374,-5.0312,-5.0313,-5.0255,-5.0212,-5.0204,-5.0096,-5.0093,-5.0085,-4.996,-4.9962,-4.9915,-4.9853,-4.9876,-4.9883,-4.984,-4.9945,-4.9896,-4.9909,-4.9906,-4.9917,-4.9937,-4.9955,-4.9724,-4.9723,-4.9722,0,0,-5.0507,-5.0461,-5.0482,-5.0442,-5.0377,-5.0315,-5.0321,-5.0236,-5.02,-5.0201,-5.0107,-5.0097,-5.0061,-5.002,-4.9994,-5.0115,-5.0042,-5.011,-5.0204,-5.022,-5.0236,-5.025,-5.029,-5.0306,-5.0117,-5.0117,-5.0118,0,-5.0608,-5.0593,-5.0502,-5.0504,-5.0481,-5.037,-5.0391,-5.0355,-5.0286,-5.0272,-5.0226,-5.0178,-5.0129,-5.0139,-5.0169,-5.0153,-5.0155,-5.0117,-5.0242,-5.0255,-5.0266,-5.0303,-5.0319,-5.0126,-5.0125,-5.0124,-5.0123,0,-5.072,-5.0712,-5.0738,-5.0674,-5.0654,-5.0666,-5.0576,-5.0567,-5.0506,-5.0449,-5.0451,-5.0388,-5.0347,-5.0345,-5.0286,-5.0348,-5.0323,-5.0262,-5.0179,-5.0296,-5.0329,-5.0342,-5.0138,-5.0135,-5.0132,-5.013,0,0,-5.0942,-5.0829,-5.084,-5.0809,-5.0731,-5.0722,-5.073,-5.069,-5.0683,-5.064,-5.0642,-5.0615,-5.0557,-5.0529,-5.0464,-5.0479,-5.0575,-5.0415,-5.0412,-5.0444,-5.0637,-5.0681,-5.0699,-5.0529,-5.0531,-5.0533,-5.0641,0,-5.1058,-5.1063,-5.0982,-5.1009,-5.0999,-5.0894,-5.09,-5.0853,-5.08,-5.0783,-5.0724,-5.0706,-5.0633,-5.0614,-5.0625,-5.0562,-5.0612,-5.0553,-5.0527,-5.0527,-5.0542,-5.0717,-5.0763,-5.0868,-5.0653,-5.0656,-5.0657,0,-5.1193,-5.1158,-5.1185,-5.1105,-5.1098,-5.1105,-5.1062,-5.1048,-5.0992,-5.0952,-5.0922,-5.0849,-5.0849,-5.0774,-5.0772,-5.0734,-5.0719,-5.0686,-5.0688,-5.0679,-5.0596,-5.0709,-5.0899,-5.0914,-5.0677,-5.0675,-5.0674,0,-5.1349,-5.1309,-5.1318,-5.1296,-5.1205,-5.1212,-5.1174,-5.1114,-5.1096,-5.1059,-5.1045,-5.1009,-5.0988,-5.0961,-5.088,-5.0834,-5.0886,-5.0805,-5.0851,-5.0853,-5.0863,-5.0863,-5.1051,-5.0861,-5.0861,-5.086,-5.086,0,-5.1484,-5.1504,-5.1387,-5.1393,-5.1411,-5.1319,-5.1339,-5.1291,-5.124,-5.1233,-5.1142,-5.1138,-5.1033,-5.1017,-5.0954,-5.096,-5.0953,-5.0919,-5.0901,-5.0925,-5.0929,-5.091,-5.09,-5.0864,-5.0864,-5.0863,-5.0862,0,-5.1659,-5.1582,-5.1585,-5.15,-5.1478,-5.1496,-5.1421,-5.1423,-5.1366,-5.1359,-5.1352,-5.1261,-5.1238,-5.1156,-5.1112,-5.1069,-5.1094,-5.1063,-5.1113,-5.1101,-5.1151,-5.1146,-5.133,-5.1348,-5.1151,-5.1153,-5.1155,0,-5.1749,-5.1761,-5.1677,-5.1667,-5.1633,-5.1619,-5.1599,-5.1509,-5.1493,-5.1431,-5.144,-5.1409,-5.1379,-5.1347,-5.1277,-5.1243,-5.1207,-5.1274,-5.1201,-5.1224,-5.1204,-5.1203,-5.1202,-5.1289,-5.1291,-5.1293,-5.1295,0,-5.1915,-5.1877,-5.1853,-5.1817,-5.1797,-5.1763,-5.1725,-5.1721,-5.1621,-5.1607,-5.1583,-5.156,-5.1516,-5.1486,-5.1441,-5.1401,-5.1331,-5.132,-5.1328,-5.135,-5.1377,-5.136,-5.1152,-5.1314,-5.1313,-5.1311,-5.131,-5.1309,-5.2047,-5.2053,-5.1995,-5.1972,-5.1934,-5.19,-5.1896,-5.1839,-5.1818,-5.1775,-5.1724,-5.1705,-5.1649,-5.1581,-5.1546,-5.153,-5.1491,-5.1504,-5.1507,-5.151,-5.1521,-5.1384,-5.1522,-5.1521,-5.152,-5.152,-5.1519,0,-5.2207,-5.2165,-5.2144,-5.2093,-5.2075,-5.2014,-5.1968,-5.1956,-5.1941,-5.1895,-5.1868,-5.184,-5.1811,-5.174,-5.1704,-5.1704,-5.1671,-5.1697,-5.1694,-5.1686,-5.1559,-5.1553,-5.1724,-5.1724,-5.1724,-5.1724,-5.1724,-5.1724,-5.2287,-5.2293,-5.2248,-5.2234,-5.2191,-5.2173,-5.2152,-5.212,-5.2082,-5.2055,-5.2031,-5.1985,-5.1929,-5.1888,-5.1858,-5.1838,-5.1827,-5.1864,-5.1833,-5.1714,-5.1695,-5.1676,-5.167,-5.1863,-5.1863,-5.196,-5.1961,-5.1962]},{"header":{"parameterUnit":"m.s-1","parameterCategory":1,"la1":30.2991,"la2":30.254,"lo1":-89.0895,"lo2":-89.0444,"dy":0.0017,"dx":0.0017,"nx":28,"ny":28,"refTime":"2024-05-12T09:00:00:Z","depth":0,"parameterNumber":3,"parameterNumberName":"V-component_of_WINDS"},"data":[0,0,0,0,0,0,0,0,0,0,0,0,0,0,0,0,0,0,0,0,0,0,0,0,0,0,0,0,0,0,0,0,0,0,0,0,0,0,0,0,0,0,0,0,0,0,0,0,0,0,0,0,0,0,0,0,0,0,2.4881,2.4881,0,2.4928,2.4928,2.4929,2.491,2.4909,2.4908,2.4907,2.4953,2.4955,2.4957,0,0,0,0,0,0,0,0,0,0,0,0,0,2.4773,2.4775,2.4881,2.4881,2.4882,2.4928,2.4928,2.4929,2.4911,2.4909,2.4908,2.4907,2.4952,2.4955,2.4957,0,0,0,0,0,0,0,0,0,0,0,0,0,2.482,2.4776,2.4881,2.4878,2.4878,2.4928,2.4928,2.4929,2.4911,2.4909,2.4908,2.4906,2.4951,2.4955,2.4958,2.5011,0,0,2.4968,2.497,0,0,0,0,0,0,0,0,2.4817,2.4824,2.4878,2.4878,2.4879,2.4912,2.4907,2.4957,2.4911,2.4898,2.4907,2.4905,2.494,2.4944,2.4957,2.5014,2.5015,2.4968,2.497,2.4972,2.4973,0,0,0,0,0,0,0,2.4814,2.4822,2.4899,2.4879,2.4879,2.4874,2.4879,2.4916,2.4928,2.4899,2.4898,2.4904,2.494,2.4954,2.4958,2.5016,2.4968,2.4971,2.4973,2.4975,2.512,2.5122,0,0,0,0,0,0,2.4811,2.4819,2.4898,2.4901,2.4843,2.4878,2.4883,2.4903,2.4927,2.493,2.4906,2.4903,2.4949,2.4954,2.4959,2.5024,2.4972,2.4975,2.4977,2.5118,2.5121,2.5123,0,0,0,0,0,0,2.4809,2.4818,2.4896,2.486,2.4869,2.4881,2.4903,2.4905,2.4918,2.4932,2.4934,2.4917,2.4948,2.4955,2.4999,2.5026,2.4977,2.498,2.5116,2.5119,2.5122,2.5154,0,0,0,0,0,0,2.4805,2.4817,2.4838,2.486,2.4871,2.4935,2.4905,2.4907,2.4924,2.4921,2.4944,2.4946,2.4947,2.4994,2.5002,2.5029,2.4982,2.5114,2.5117,2.5121,2.5151,2.5158,2.5164,0,0,0,0,0,2.4802,2.4844,2.4839,2.4849,2.4897,2.4937,2.4943,2.4944,2.4926,2.4947,2.4956,2.4945,2.5021,2.4999,2.5008,2.5036,2.5112,2.5116,2.512,2.5148,2.5156,2.5164,0,0,0,0,0,0,2.4824,2.4847,2.4842,2.4893,2.4913,2.4934,2.496,2.4953,2.4978,2.4974,2.4974,2.4979,2.5025,2.5035,2.501,2.509,2.5064,2.507,2.5082,2.509,2.5096,2.5093,2.4985,0,0,0,0,0,2.4835,2.4866,2.4884,2.4928,2.4938,2.4948,2.4965,2.4964,2.4985,2.4993,2.5005,2.5025,2.5054,2.5072,2.5099,2.5152,2.5157,2.5176,2.5183,2.5188,2.5193,2.5223,2.5232,2.5136,2.5136,2.5136,0,0,2.4858,2.4874,2.4893,2.4933,2.4948,2.498,2.4955,2.4989,2.5012,2.4998,2.5041,2.5051,2.5073,2.5122,2.5144,2.5132,2.5221,2.5193,2.5197,2.52,2.5228,2.5237,2.5245,2.5139,2.5139,2.5138,0,0,2.4915,2.4931,2.4969,2.4986,2.501,2.5017,2.5026,2.5048,2.5054,2.5098,2.5088,2.5115,2.5164,2.5181,2.5196,2.5261,2.5252,2.527,2.5304,2.5332,2.534,2.5346,2.537,2.5379,2.5275,2.5275,2.5275,0,2.494,2.4988,2.499,2.5025,2.5043,2.5033,2.5072,2.5087,2.5119,2.5131,2.5117,2.5179,2.5193,2.5247,2.5263,2.5275,2.5286,2.5267,2.5339,2.5345,2.5352,2.5374,2.5383,2.5277,2.5277,2.5277,2.5277,0,2.5017,2.5051,2.5079,2.5111,2.5132,2.5169,2.5176,2.5197,2.5195,2.5202,2.5247,2.5264,2.5295,2.5307,2.5305,2.5361,2.5352,2.5339,2.5312,2.5363,2.5384,2.5393,2.528,2.528,2.5279,2.5279,0,0,2.5089,2.5123,2.5134,2.5149,2.5176,2.5201,2.5238,2.5269,2.5287,2.5309,2.534,2.5383,2.537,2.5387,2.5387,2.5412,2.5464,2.5395,2.5396,2.5408,2.5527,2.5537,2.5547,2.5458,2.546,2.5461,2.5525,0,2.5149,2.5214,2.5218,2.5277,2.5308,2.5299,2.5331,2.5351,2.536,2.5387,2.5395,2.5426,2.5407,2.5418,2.5442,2.5452,2.5488,2.5448,2.5486,2.5488,2.5481,2.5558,2.5569,2.5628,2.5533,2.5535,2.5536,0,2.5227,2.5254,2.5317,2.534,2.5353,2.5382,2.5411,2.5438,2.546,2.5464,2.5484,2.5481,2.5518,2.5491,2.5543,2.5516,2.5532,2.5539,2.5541,2.5545,2.5514,2.5563,2.5647,2.5656,2.5549,2.5548,2.5547,0,2.5274,2.5325,2.5369,2.5382,2.5411,2.5432,2.5444,2.5465,2.5484,2.551,2.5522,2.5551,2.5567,2.559,2.5594,2.5574,2.5646,2.5619,2.565,2.565,2.5665,2.5664,2.5753,2.5676,2.5676,2.5676,2.5675,0,2.5341,2.5379,2.5391,2.5418,2.5461,2.5465,2.5507,2.5519,2.5538,2.5567,2.5561,2.5588,2.5592,2.5621,2.5624,2.5667,2.5674,2.5678,2.5678,2.5679,2.5678,2.5689,2.5685,2.5678,2.5678,2.5677,2.5677,0,2.54,2.5409,2.5457,2.5481,2.5488,2.5518,2.5538,2.5564,2.5573,2.561,2.5618,2.5631,2.5664,2.5671,2.571,2.5712,2.5763,2.5759,2.5756,2.5755,2.5786,2.5783,2.5884,2.5898,2.5812,2.5813,2.5814,0,2.5441,2.5471,2.5499,2.5518,2.5532,2.5564,2.5584,2.5588,2.5609,2.5638,2.566,2.5693,2.5719,2.5773,2.5785,2.5815,2.5812,2.5845,2.5816,2.5816,2.5812,2.5811,2.5814,2.5851,2.5851,2.5852,2.5853,0,2.5515,2.5518,2.5547,2.5579,2.5603,2.5627,2.565,2.5667,2.5675,2.5698,2.5732,2.5753,2.5794,2.5826,2.5856,2.5869,2.5862,2.5862,2.5871,2.5871,2.5868,2.587,2.5771,2.586,2.5859,2.5858,2.5858,2.5858,2.5567,2.5593,2.5617,2.565,2.5668,2.569,2.5716,2.5729,2.5758,2.5792,2.5792,2.583,2.5853,2.5893,2.5907,2.5936,2.5926,2.5938,2.5942,2.5945,2.5948,2.5864,2.5942,2.5942,2.5942,2.5941,2.5941,0,2.564,2.5655,2.5686,2.5719,2.5745,2.5738,2.5764,2.5786,2.5819,2.5841,2.5868,2.5907,2.5939,2.5955,2.5986,2.6007,2.6005,2.6015,2.6013,2.6016,2.5955,2.5945,2.6016,2.6016,2.6016,2.6016,2.6016,2.6016,2.5681,2.5726,2.5733,2.5786,2.5801,2.5839,2.5854,2.5875,2.5892,2.5937,2.5964,2.5975,2.5994,2.6027,2.6056,2.606,2.6072,2.6083,2.6086,2.6028,2.6021,2.6013,2.6003,2.6086,2.6086,2.6144,2.6145,2.6145]}]]